DAL149 KATL-SCEL

Flight info

Callsign DAL149
Flight time N/A
Altitude 37000
Route SMLTZ3 WALET DCT ZPLEN Q79 VAULT/N0490F380 Q79 MCLAW Y442 FUNDI/N0491F370 UM335 LEPON DCT ARNAL/N0490F380 DCT AROVI DCT REKAD DCT ANRAX DCT ARNEL/N0486F390 UM542 AKTUK DCT MIPAS DCT ISREN DCT TOPIX DCT ILMAR/N0480F410 DCT IREMI UL302 TOY DCT EMBAL DCT SIMOK SIMOK7B
Aircraft A359/H-SDE2E3GHIJ3J4J5LM1ORWXY/LB1D1

Departure

Time N/A
Airport Hartsfield Jackson Atlanta International Airport (KATL)

Arrival

Time 2026-05-05 02:24
Airport Comodoro Arturo Merino Benítez International Airport (SCEL)
Time Latitude Longitude Altitude Speed Heading
2026-05-05 02:20 -33.20572 -70.81265 4869 ft 199 kts 177°
2026-05-05 02:20 -33.21582 -70.81210 4656 ft 192 kts 177°
2026-05-05 02:20 -33.22879 -70.81140 4349 ft 186 kts 177°
2026-05-05 02:20 -33.24164 -70.81071 4091 ft 184 kts 177°
2026-05-05 02:21 -33.25435 -70.81003 3839 ft 181 kts 177°
2026-05-05 02:21 -33.26654 -70.80938 3610 ft 169 kts 177°
2026-05-05 02:21 -33.27418 -70.80897 3470 ft 162 kts 176°
2026-05-05 02:21 -33.28871 -70.80818 3189 ft 150 kts 177°
2026-05-05 02:22 -33.29552 -70.80782 3058 ft 146 kts 177°
2026-05-05 02:22 -33.30560 -70.80728 2871 ft 144 kts 177°
2026-05-05 02:22 -33.31562 -70.80674 2678 ft 144 kts 177°
2026-05-05 02:22 -33.32560 -70.80620 2483 ft 143 kts 177°
2026-05-05 02:23 -33.33548 -70.80567 2300 ft 142 kts 177°
2026-05-05 02:23 -33.34534 -70.80513 2105 ft 141 kts 177°
2026-05-05 02:23 -33.35513 -70.80455 1895 ft 141 kts 178°
2026-05-05 02:23 -33.36487 -70.80415 1717 ft 139 kts 179°
2026-05-05 02:24 -33.37453 -70.80351 1624 ft 139 kts 177°
2026-05-05 02:24 -33.38398 -70.80311 1579 ft 124 kts 178°
2026-05-05 02:24 -33.39002 -70.80278 1580 ft 44 kts 178°
2026-05-05 02:24 -33.39084 -70.80274 1580 ft 2 kts 178°
2026-05-05 02:25 -33.39113 -70.80273 1580 ft 6 kts 177°
2026-05-05 02:25 -33.39165 -70.80266 1579 ft 9 kts 171°
2026-05-05 02:25 -33.39240 -70.80246 1579 ft 13 kts 165°
2026-05-05 02:25 -33.39328 -70.80200 1578 ft 13 kts 153°
2026-05-05 02:26 -33.39407 -70.80142 1575 ft 16 kts 148°
2026-05-05 02:26 -33.39425 -70.80128 1574 ft 1 kts 148°
2026-05-05 02:26 -33.39446 -70.80112 1574 ft 6 kts 148°
2026-05-05 02:26 -33.39496 -70.80075 1572 ft 11 kts 148°
2026-05-05 02:27 -33.39573 -70.80043 1572 ft 13 kts 173°
2026-05-05 02:27 -33.39668 -70.80036 1572 ft 15 kts 176°
2026-05-05 02:27 -33.39778 -70.80029 1572 ft 17 kts 177°
2026-05-05 02:27 -33.39902 -70.80022 1572 ft 19 kts 177°
2026-05-05 02:28 -33.40041 -70.80013 1573 ft 21 kts 177°
2026-05-05 02:28 -33.40153 -70.79977 1572 ft 11 kts 123°
2026-05-05 02:28 -33.40163 -70.79888 1571 ft 0 kts 90°
2026-05-05 02:29 -33.40162 -70.79879 1571 ft 2 kts 89°
2026-05-05 02:29 -33.40162 -70.79848 1571 ft 6 kts 87°
2026-05-05 02:29 -33.40172 -70.79805 1571 ft 4 kts 141°
2026-05-05 02:29 -33.40208 -70.79794 1571 ft 4 kts 169°
2026-05-05 02:30 -33.40218 -70.79792 1571 ft 2 kts 173°
2026-05-05 02:30 -33.40233 -70.79791 1571 ft 0 kts 175°
2026-05-05 02:30 -33.40234 -70.79791 1571 ft 0 kts 175°
2026-05-05 02:31 -33.40235 -70.79791 1571 ft 0 kts 176°
2026-05-05 02:32 -33.40240 -70.79791 1571 ft 0 kts 176°